Weather History for KSGU - May, 2013

Change the Weather History Date:

Monday, May 20, 2013

  Actual Average Record
Temperature  
Mean Temperature 66 °F -  
Max Temperature 80 °F 87 °F 100 °F (2008)
Min Temperature 51 °F 55 °F 38 °F (1974)
Growing Degree Days 16 (Base 50)    
Moisture  
Dew Point 33 °F    
Average Humidity 29    
Maximum Humidity 47    
Minimum Humidity 17    
Precipitation  
Precipitation 0.00 in - - ()
Sea Level Pressure  
Sea Level Pressure 30.07 in    
Wind  
Wind Speed 10 mph (NNE)    
Max Wind Speed 23 mph    
Max Gust Speed 30 mph    
Visibility 10 miles    
Events      
Averages and records for this station are not official NWS values.
T = Trace of Precipitation, MM = Missing Value Source: NWS Daily Summary

Daily Weather History Graph

Daily Weather History Graph

Search for Another Location

Airport or City:

Trip Planner

Search our weather history database for the weather conditions in past years. The results will help you decide how hot, cold, wet, or windy it might be!

Date:

Astronomy

May. 20, 2013 Rise Set
Actual Time 6:22 AM MDT 8:40 PM MDT
Civil Twilight 5:52 AM MDT 9:09 PM MDT
Nautical Twilight 5:16 AM MDT 9:46 PM MDT
Astronomical Twilight 4:36 AM MDT 10:25 PM MDT
Moon 3:58 PM MDT (5/20) 3:12 AM MDT (5/20)
Length of Visible Light 15h 17m
Length of Day
14h 18m
Waxing Gibbous, 75% of the Moon is Illuminated
May 20
Waxing Gibbous
May 24
Full
May 31
Last Quarter
Jun 8
New
Jun 16
First Quarter

Hourly Weather History & Observations

Time (MDT) Temp. Dew Point Humidity Pressure Visibility Wind Dir Wind Speed Gust Speed Precip Events Conditions
12:15 AM 62.6 °F 33.8 °F 34% 30.08 in 10.0 mi ENE 10.4 mph 17.3 mph N/A   Clear
12:35 AM 62.6 °F 33.8 °F 34% 30.08 in 10.0 mi NE 15.0 mph 23.0 mph N/A   Clear
12:55 AM 62.6 °F 33.8 °F 34% 30.08 in 10.0 mi NE 19.6 mph 23.0 mph N/A   Clear
1:15 AM 62.6 °F 33.8 °F 34% 30.08 in 10.0 mi NE 15.0 mph 25.3 mph N/A   Clear
1:35 AM 62.6 °F 33.8 °F 34% 30.08 in 10.0 mi NE 12.7 mph 20.7 mph N/A   Clear
1:55 AM 60.8 °F 33.8 °F 36% 30.08 in 10.0 mi NNE 16.1 mph 23.0 mph N/A   Clear
2:15 AM 60.8 °F 33.8 °F 36% 30.08 in 10.0 mi NE 16.1 mph 19.6 mph N/A   Clear
2:35 AM 60.8 °F 35.6 °F 39% 30.07 in 10.0 mi NE 15.0 mph - N/A   Clear
2:55 AM 60.8 °F 35.6 °F 39% 30.07 in 10.0 mi NNE 9.2 mph 17.3 mph N/A   Clear
3:15 AM 60.8 °F 33.8 °F 36% 30.08 in 10.0 mi Calm Calm - N/A   Clear
3:35 AM 60.8 °F 33.8 °F 36% 30.08 in 10.0 mi West 5.8 mph - N/A   Clear
3:55 AM 57.2 °F 33.8 °F 41% 30.08 in 10.0 mi SW 6.9 mph - N/A   Clear
4:35 AM 57.2 °F 33.8 °F 41% 30.08 in 10.0 mi South 8.1 mph - N/A   Clear
4:55 AM 57.2 °F 33.8 °F 41% 30.08 in 10.0 mi South 6.9 mph - N/A   Clear
5:15 AM 57.2 °F 33.8 °F 41% 30.08 in 10.0 mi SSW 4.6 mph - N/A   Clear
5:35 AM 55.4 °F 33.8 °F 44% 30.09 in 10.0 mi SSW 6.9 mph - N/A   Clear
6:15 AM 53.6 °F 33.8 °F 47% 30.10 in 10.0 mi Calm Calm - N/A   Clear
6:35 AM 51.8 °F 32.0 °F 47% 30.10 in 10.0 mi South 3.5 mph - N/A   Clear
6:55 AM 51.8 °F 32.0 °F 47% 30.11 in 10.0 mi SSE 3.5 mph - N/A   Clear
7:15 AM 53.6 °F 33.8 °F 47% 30.12 in 10.0 mi South 4.6 mph - N/A   Clear
7:35 AM 55.4 °F 33.8 °F 44% 30.13 in 10.0 mi SSE 4.6 mph - N/A   Clear
8:15 AM 57.2 °F 33.8 °F 41% 30.13 in 10.0 mi South 5.8 mph - N/A   Clear
8:35 AM 59.0 °F 33.8 °F 39% 30.14 in 10.0 mi South 4.6 mph - N/A   Clear
9:35 AM 62.6 °F 33.8 °F 34% 30.15 in 10.0 mi SSW 8.1 mph - N/A   Clear
9:55 AM 64.4 °F 33.8 °F 32% 30.15 in 10.0 mi WSW 4.6 mph - N/A   Clear
10:15 AM 64.4 °F 33.8 °F 32% 30.14 in 10.0 mi Calm Calm - N/A   Clear
10:35 AM 64.4 °F 33.8 °F 32% 30.14 in 10.0 mi SW 3.5 mph - N/A   Clear
10:55 AM 66.2 °F 33.8 °F 30% 30.14 in 10.0 mi South 6.9 mph - N/A   Clear
11:15 AM 68.0 °F 32.0 °F 26% 30.13 in 10.0 mi West 6.9 mph - N/A   Clear
11:35 AM 69.8 °F 32.0 °F 25% 30.13 in 10.0 mi WSW 8.1 mph - N/A   Clear
12:15 PM 71.6 °F 32.0 °F 23% 30.12 in 10.0 mi Calm Calm - N/A   Clear
12:55 PM 73.4 °F 30.2 °F 20% 30.10 in 10.0 mi NNE 6.9 mph - N/A   Clear
1:15 PM 73.4 °F 30.2 °F 20% 30.09 in 10.0 mi NW 8.1 mph 18.4 mph N/A   Clear
1:35 PM 73.4 °F 30.2 °F 20% 30.08 in 10.0 mi NNW 12.7 mph 17.3 mph N/A   Clear
1:55 PM 73.4 °F 30.2 °F 20% 30.08 in 10.0 mi Calm Calm - N/A   Clear
2:15 PM 75.2 °F 30.2 °F 19% 30.08 in 10.0 mi NW 9.2 mph - N/A   Clear
2:35 PM 77.0 °F 30.2 °F 18% 30.07 in 10.0 mi West 10.4 mph - N/A   Clear
2:55 PM 77.0 °F 30.2 °F 18% 30.06 in 10.0 mi West 10.4 mph 18.4 mph N/A   Clear
3:15 PM 77.0 °F 30.2 °F 18% 30.06 in 10.0 mi West 11.5 mph 16.1 mph N/A   Clear
3:35 PM 78.8 °F 32.0 °F 18% 30.05 in 10.0 mi North 5.8 mph - N/A   Clear
3:55 PM 78.8 °F 30.2 °F 17% 30.04 in 10.0 mi West 6.9 mph - N/A   Clear
4:15 PM 78.8 °F 32.0 °F 18% 30.04 in 10.0 mi WNW 4.6 mph - N/A   Clear
4:35 PM 78.8 °F 33.8 °F 20% 30.03 in 10.0 mi NW 6.9 mph - N/A   Clear
4:55 PM 78.8 °F 33.8 °F 20% 30.03 in 10.0 mi West 4.6 mph - N/A   Partly Cloudy
5:15 PM 80.6 °F 33.8 °F 18% 30.02 in 10.0 mi North 12.7 mph 18.4 mph N/A   Partly Cloudy
5:35 PM 80.6 °F 33.8 °F 18% 30.02 in 10.0 mi NNE 16.1 mph 27.6 mph N/A   Scattered Clouds
5:55 PM 80.6 °F 33.8 °F 18% 30.02 in 10.0 mi NE 15.0 mph 21.9 mph N/A   Partly Cloudy
6:15 PM 80.6 °F 33.8 °F 18% 30.02 in 10.0 mi NNE 17.3 mph 24.2 mph N/A   Scattered Clouds
6:35 PM 80.6 °F 33.8 °F 18% 30.02 in 10.0 mi NNE 16.1 mph 20.7 mph N/A   Partly Cloudy
6:55 PM 80.6 °F 33.8 °F 18% 30.01 in 10.0 mi NE 17.3 mph 21.9 mph N/A   Clear
7:15 PM 78.8 °F 33.8 °F 20% 30.01 in 10.0 mi NE 19.6 mph 26.5 mph N/A   Clear
7:35 PM 78.8 °F 33.8 °F 20% 30.01 in 10.0 mi NE 17.3 mph 20.7 mph N/A   Clear
8:15 PM 75.2 °F 33.8 °F 22% 30.02 in 10.0 mi NE 20.7 mph 27.6 mph N/A   Clear
8:35 PM 73.4 °F 33.8 °F 23% 30.03 in 10.0 mi NE 23.0 mph 29.9 mph N/A   Clear
8:55 PM 73.4 °F 33.8 °F 23% 30.03 in 10.0 mi NE 20.7 mph 28.8 mph N/A   Clear
9:35 PM 71.6 °F 33.8 °F 25% 30.03 in 10.0 mi NE 19.6 mph 28.8 mph N/A   Clear
9:55 PM 71.6 °F 33.8 °F 25% 30.04 in 10.0 mi NE 19.6 mph 24.2 mph N/A   Clear
10:15 PM 71.6 °F 33.8 °F 25% 30.05 in 10.0 mi NE 11.5 mph 20.7 mph N/A   Clear
10:35 PM 71.6 °F 33.8 °F 25% 30.05 in 10.0 mi NE 15.0 mph - N/A   Clear
10:55 PM 69.8 °F 33.8 °F 27% 30.06 in 10.0 mi NE 15.0 mph 21.9 mph N/A   Clear
11:15 PM 69.8 °F 33.8 °F 27% 30.06 in 10.0 mi NE 10.4 mph 21.9 mph N/A   Clear
11:35 PM 69.8 °F 33.8 °F 27% 30.06 in 10.0 mi NE 12.7 mph 16.1 mph N/A   Clear
11:55 PM 69.8 °F 33.8 °F 27% 30.06 in 10.0 mi NE 12.7 mph 18.4 mph N/A   Clear